DMSP 5D-2 F13 DEB, 40580

Orbit data source: Space-Track

DMSP 5D-2 F13 DEB, 40580 is space debris in SSO originally from a launch on Fri, 24 Mar 1995 UTC launched from the Air Force Western Test Range (AFWTR). Debris objects in space refer to the collection of defunct objects orbiting the Earth. Examples of debris include non-operational satellites, rocket bodies, and fragments generated from explosions, collisions, or faulty payload assembly.

Loading next visibility...
Identifier
40580, 1995-015EP
Orbit
SSO
Country
Flag of USUS
Related business
Manufacturer
Unknown
Mission
Spacecraft
Bus & Motor
Unknown
Mass
Unknown
Launch date (UTC)
1995-03-24 (31 years ago)
Launch vehicle
Unknown
Launch site
Air Force Western Test Range (AFWTR)
Object type
Payload
Rocket body
Debris
Shape & HBR
Unknown shape, 0.1 m
Radar Cross Section
Small (<0.1 m²)

Expand to show TLE details & history
Last TLE update: 2 days ago

TLE from 2 days ago
0 DMSP 5D-2 F13 DEB
1 40580U 95015EP  26252.05667449  .00002921  00000-0  10491-2 0  9996
2 40580  98.8254 288.3260 0013598  47.3671 312.8657 14.34577547591899
Epoch: 2026-09-09T01:21Z
TLE epoch observation values (Epoch: 2026-09-09T01:21:36.675Z)
Latitude
-0.00007°
Longitude
-80.19101°
Altitude
772.789 km
Speed
7.471 km/s
True Right ascension
19h 13m 18s
True Declination
0° 00' 00"
Sunlit
Object was in full shadow at epoch
Visualization orbit readout
Latitude
Unknown
Longitude
Unknown
Altitude
Unknown
Speed
Unknown
Apparent Right ascension
Unknown
Apparent Declination
Unknown
Sunlit
N/A
Visualization observer readout
Local Sidereal Time
14:55:10
Azimuth
Unknown
Elevation
Unknown
Doppler factor
Unknown
Orbital elements
Apogee altitude
783.34 km
Perigee altitude
763.89 km
Semi-major axis
7,151.752 km
Eccentricity
0.00136
Inclination
98.8254°
RAAN
288.326°
Arg. of periapsis
47.3671°
True anomaly
312.75136°
Mean anomaly
312.8657°
Eccentric anomaly
312.80854°
Mean motion
3.5886 °/min
Orbital period
100.32 mins
BSTAR
0.0010491
Loading maneuver chart data...
Computing Atmospheric mass density...

Documentation

Showing up to 5 results
|